#timestamp,LO_Frequency,Hit,StdDev 
1649044815.6,286046998.3,N
1649044835.5,286046998.4,N
1649044855.3,286047000.7,N
1649044875.1,286047002.4,N
1649044895.9,286047004.4,Y
1649044915.7,286047001.3,P
1649044935.6,286046999.9,N
1649044955.4,286047002.7,P
1649044975.2,286047000.1,N
1649044995.1,286047004.2,Y
1649044996.0,286047004.2,P
1649045015.8,286047002.2,N
1649045035.6,286047000.4,N
1649045055.5,286047002.2,N
1649045075.3,286047002.7,N
1649045095.2,286047001.2,N
1649045115.9,286047001.0,N
1649045135.7,286047000.1,N
1649045155.6,286046998.4,N
1649045175.4,286046998.4,N
1649045195.2,286046998.4,N
1649045215.1,286047000.8,N
1649045216.0,286047000.8,N
1649045235.8,286047000.7,N
1649045255.7,286046998.7,N
1649045275.5,286046999.1,N
1649045295.3,286046998.4,N
1649045315.2,286046998.8,N
1649045335.0,286046998.5,N
1649045335.9,286046998.5,N
1649045355.7,286046995.2,N
1649045375.6,286046996.8,N
1649045395.4,286046997.8,N
1649045415.3,286046996.9,N
1649045435.1,286046999.4,N
1649045436.0,286046999.4,N
1649045455.8,286046998.6,N
1649045475.7,286047000.3,N
1649045495.5,286047002.4,N
1649045515.3,286046999.8,N
1649045535.2,286047000.4,N
1649045555.0,286047000.9,N
1649045555.9,286047000.9,N
1649045575.8,286047002.7,N
1649045595.6,286046999.8,N
1649045615.4,286047000.0,N
1649045635.3,286046998.3,N
1649045655.1,286046998.4,N
1649045675.9,286046999.0,N
1649045695.7,286047000.0,N
1649045715.5,286047004.0,N
1649045735.4,286047002.8,N
1649045755.2,286047000.2,N
1649045775.0,286047001.9,N
1649045775.9,286047001.9,N
1649045795.8,286047004.3,N
1649045815.6,286047000.1,N
1649045835.5,286047002.1,N
1649045855.3,286046999.7,N
1649045875.1,286046999.8,N
1649045895.9,286047002.4,N
1649045915.7,286046999.7,N
1649045935.5,286046999.7,N
1649045955.4,286047001.4,N
1649045975.2,286047003.9,N
1649045995.1,286047004.0,N
1649045996.0,286047004.0,N
1649046015.8,286047003.5,N
1649046035.6,286047004.3,N
1649046055.5,286047003.9,N
1649046075.3,286047001.5,N
1649046095.1,286047001.3,N
1649046115.9,286047002.1,N
1649046135.7,286047002.8,N
1649046155.6,286046998.8,N
1649046175.4,286046998.6,N
1649046195.2,286046999.0,N
1649046215.1,286047000.8,N
1649046216.0,286047000.8,N
1649046235.8,286047000.4,N
1649046255.7,286047000.4,N
1649046275.5,286046999.8,N
1649046295.3,286047002.1,N
1649046315.2,286047003.1,N
1649046335.0,286047004.0,N
1649046335.9,286047004.0,N
1649046355.7,286047001.6,N
1649046375.6,286047002.5,N
1649046395.4,286047002.7,N
1649046415.3,286047002.6,N
1649046435.1,286047001.9,N
1649046436.0,286047001.9,N
1649046455.8,286047003.4,N
1649046475.7,286047002.9,N
1649046495.5,286047001.8,N
1649046515.4,286047002.6,N
1649046535.2,286047002.6,N
1649046555.0,286046999.7,N
1649046555.9,286046999.7,N
1649046575.8,286047002.8,N
1649046595.6,286047002.2,N
1649046615.4,286047001.5,N
1649046635.3,286047002.0,N
1649046655.1,286047002.3,N
1649046675.9,286047002.6,N
1649046695.7,286047001.3,N
1649046715.5,286047003.1,N
1649046735.4,286047001.9,N
1649046755.2,286047002.6,N
1649046775.1,286047002.5,N
1649046776.0,286047002.5,N
1649046795.8,286047002.4,N
1649046815.6,286047001.5,N
1649046835.5,286046999.7,N
1649046855.3,286047002.2,N
1649046875.1,286047004.4,Y
1649046895.9,286047000.4,P
1649046915.7,286047000.0,N
1649046935.6,286046998.3,N
1649046955.4,286046996.8,N
1649046975.2,286046996.7,N
1649046995.1,286046999.5,N
1649046996.0,286046999.5,N
1649047015.8,286046998.3,N
1649047035.7,286046996.5,N
1649047055.5,286046999.4,N
1649047075.3,286047001.0,N
1649047095.2,286047001.2,N
1649047115.9,286046998.3,N
1649047135.7,286047000.4,N
1649047155.6,286047000.5,N
1649047175.4,286046998.5,N
1649047195.2,286046998.4,N
1649047215.1,286046998.3,N
1649047216.0,286046998.3,N
1649047235.8,286047000.7,N
1649047255.7,286047001.2,N
1649047275.5,286047000.9,N
1649047295.3,286047002.3,N
1649047315.2,286047002.8,N
1649047335.0,286047002.3,N
1649047335.9,286047002.3,N
1649047355.8,286047002.3,N
1649047375.6,286047002.4,N
1649047395.4,286047001.7,N
1649047415.3,286047002.7,N
1649047435.1,286047000.3,N
1649047455.8,286047002.7,N
1649047475.7,286047000.0,N
1649047495.5,286047001.0,N
1649047515.4,286047000.0,N
1649047535.2,286047002.2,N
1649047555.0,286046999.7,N
1649047555.9,286046999.7,N
1649047575.8,286047004.2,N
1649047595.6,286047001.6,N
1649047615.5,286047000.1,N
1649047635.3,286047002.4,N
1649047655.1,286047001.9,N
1649047675.9,286046999.8,N
1649047695.7,286046999.9,N
1649047715.5,286047000.5,N
1649047735.4,286047000.0,N
1649047755.2,286047000.0,N
1649047775.1,286046998.1,N
1649047776.0,286046998.1,N
1649047795.8,286047001.1,N
1649047815.6,286046998.8,N
1649047835.5,286046998.9,N
1649047855.3,286047001.2,N
1649047875.2,286046998.1,N
1649047895.9,286047000.5,N
1649047915.7,286047000.8,N
1649047935.6,286047000.7,N
1649047955.4,286046998.5,N
1649047975.2,286046998.5,N
1649047995.1,286046998.8,N
1649047996.0,286046998.8,N
1649048015.8,286046998.2,N
1649048035.7,286047000.8,N
1649048055.5,286047001.0,N
1649048075.3,286046998.7,N
1649048095.2,286046999.2,N
1649048115.0,286046999.1,N
1649048115.9,286046999.1,N
1649048135.7,286046998.3,N
1649048155.6,286046999.0,N
1649048175.4,286046998.3,N
1649048195.3,286046998.2,N
1649048215.1,286046998.1,N
1649048216.0,286046998.1,N
1649048235.8,286046998.2,N
1649048255.7,286047002.3,N
1649048275.5,286047002.5,N
1649048295.3,286047002.0,N
1649048315.2,286047001.0,N
1649048335.0,286047000.8,N
1649048335.9,286047000.8,N
1649048355.8,286047000.6,N
1649048375.6,286047000.0,N
1649048395.4,286047001.2,N
